• In Uzbekistan
  • List of Countries
  • For 7 days
  • Water Temperature
  • Weather Map
  • Weather Widgets
  • user-avatar
    Login

    Hourly Weather Brisbane

    Today, 16 September, Monday

    Time Temperature Precipitation Wind Pressure Humidity
    00:00 +16°C° 0 mm 1 mps 765 mmHg 77%
    01:00 +15°C° 0 mm 1 mps 765 mmHg 78%
    02:00 +15°C° 0 mm 1 mps 765 mmHg 78%
    03:00 +14°C° 0 mm 1 mps 765 mmHg 79%
    04:00 +14°C° 0 mm 1 mps 764 mmHg 81%
    05:00 +15°C° 0 mm 1 mps 765 mmHg 77%
    06:00 +15°C° 0 mm 1 mps 765 mmHg 73%
    07:00 +16°C° 0 mm 1 mps 765 mmHg 69%
    08:00 +20°C° 0 mm 1 mps 765 mmHg 58%
    09:00 +23°C° 0 mm 2 mps 765 mmHg 47%
    10:00 +26°C° 0 mm 2 mps 764 mmHg 36%
    11:00 +28°C° 0 mm 3 mps 763 mmHg 33%
    12:00 +29°C° 0 mm 3 mps 763 mmHg 31%
    13:00 +30°C° 0 mm 4 mps 762 mmHg 28%
    14:00 +29°C° 0 mm 4 mps 762 mmHg 33%
    15:00 +28°C° 0 mm 4 mps 761 mmHg 39%
    16:00 +26°C° 0 mm 5 mps 761 mmHg 45%
    17:00 +23°C° 0 mm 5 mps 761 mmHg 52%
    18:00 +22°C° 0 mm 4 mps 761 mmHg 60%
    19:00 +20°C° 0 mm 4 mps 761 mmHg 67%
    20:00 +19°C° 0 mm 3 mps 761 mmHg 68%
    21:00 +19°C° 0 mm 3 mps 762 mmHg 69%
    22:00 +18°C° 0 mm 3 mps 762 mmHg 69%
    23:00 +18°C° 0 mm 2 mps 762 mmHg 70%

    Tomorrow, 17 September, Tuesday

    Time Temperature Precipitation Wind Pressure Humidity
    00:00 +17°C° 0 mm 2 mps 762 mmHg 71%
    01:00 +16°C° 0 mm 2 mps 761 mmHg 72%
    02:00 +16°C° 0 mm 1 mps 761 mmHg 72%
    03:00 +16°C° 0 mm 1 mps 761 mmHg 73%
    04:00 +16°C° 0 mm 1 mps 761 mmHg 73%
    05:00 +16°C° 0 mm 1 mps 761 mmHg 70%
    06:00 +18°C° 0 mm 1 mps 761 mmHg 67%
    07:00 +18°C° 0 mm 1 mps 762 mmHg 65%
    08:00 +22°C° 0 mm 1 mps 762 mmHg 54%
    09:00 +25°C° 0 mm 1 mps 762 mmHg 44%
    10:00 +28°C° 0 mm 1 mps 762 mmHg 34%
    11:00 +29°C° 0 mm 2 mps 761 mmHg 33%
    12:00 +30°C° 0 mm 2 mps 760 mmHg 31%
    13:00 +31°C° 0 mm 3 mps 760 mmHg 29%
    14:00 +29°C° 0 mm 3 mps 759 mmHg 36%
    15:00 +27°C° 0 mm 4 mps 759 mmHg 42%
    16:00 +26°C° 0 mm 4 mps 759 mmHg 49%
    17:00 +25°C° 0 mm 4 mps 759 mmHg 56%
    18:00 +22°C° 0 mm 4 mps 759 mmHg 63%
    19:00 +21°C° 0 mm 3 mps 759 mmHg 69%
    20:00 +21°C° 0.1 mm 3 mps 760 mmHg 71%
    21:00 +20°C° 0.1 mm 3 mps 760 mmHg 72%
    22:00 +19°C° 0.1 mm 3 mps 761 mmHg 74%
    23:00 +19°C° 0 mm 3 mps 761 mmHg 75%

    Day after tomorrow, 18 September, Wednesday

    Time Temperature Precipitation Wind Pressure Humidity
    00:00 +18°C° 0 mm 2 mps 761 mmHg 77%
    01:00 +18°C° 0 mm 2 mps 761 mmHg 79%
    02:00 +17°C° 0 mm 2 mps 761 mmHg 75%
    03:00 +17°C° 0 mm 2 mps 761 mmHg 70%
    04:00 +16°C° 0 mm 2 mps 761 mmHg 66%
    05:00 +16°C° 0 mm 2 mps 762 mmHg 62%
    06:00 +17°C° 0 mm 2 mps 762 mmHg 59%
    07:00 +17°C° 0 mm 3 mps 763 mmHg 55%
    08:00 +19°C° 0 mm 3 mps 763 mmHg 44%
    09:00 +22°C° 0 mm 3 mps 763 mmHg 33%
    10:00 +25°C° 0 mm 3 mps 763 mmHg 22%
    11:00 +26°C° 0 mm 2 mps 762 mmHg 21%
    12:00 +28°C° 0 mm 2 mps 762 mmHg 19%
    13:00 +29°C° 0 mm 2 mps 761 mmHg 18%
    14:00 +28°C° 0 mm 2 mps 761 mmHg 21%
    15:00 +27°C° 0 mm 3 mps 761 mmHg 24%
    16:00 +27°C° 0 mm 3 mps 761 mmHg 27%
    17:00 +24°C° 0 mm 3 mps 762 mmHg 39%
    18:00 +21°C° 0 mm 3 mps 762 mmHg 51%
    19:00 +19°C° 0 mm 2 mps 763 mmHg 64%
    20:00 +19°C° 0 mm 2 mps 763 mmHg 70%
    21:00 +18°C° 0 mm 2 mps 764 mmHg 77%
    22:00 +18°C° 0 mm 2 mps 764 mmHg 84%
    23:00 +17°C° 0.1 mm 2 mps 764 mmHg 85%

    19 September, Thursday

    Time Temperature Precipitation Wind Pressure Humidity
    00:00 +18°C° 0.1 mm 1 mps 764 mmHg 86%
    01:00 +18°C° 0.1 mm 1 mps 764 mmHg 88%
    02:00 +18°C° 0.2 mm 1 mps 764 mmHg 88%
    03:00 +16°C° 0.2 mm 1 mps 764 mmHg 89%
    04:00 +16°C° 0.2 mm 1 mps 765 mmHg 90%
    05:00 +18°C° 0.1 mm 1 mps 765 mmHg 88%
    06:00 +18°C° 0.1 mm 1 mps 765 mmHg 86%
    07:00 +17°C° 0.1 mm 0 mps 766 mmHg 84%
    08:00 +20°C° 0.2 mm 1 mps 766 mmHg 78%
    09:00 +22°C° 0.2 mm 1 mps 766 mmHg 73%
    10:00 +23°C° 0.2 mm 2 mps 766 mmHg 68%
    11:00 +24°C° 0.1 mm 3 mps 766 mmHg 63%
    12:00 +25°C° 0.1 mm 3 mps 765 mmHg 58%
    13:00 +26°C° 0.1 mm 4 mps 764 mmHg 53%
    14:00 +25°C° 0.1 mm 4 mps 764 mmHg 54%
    15:00 +25°C° 0.1 mm 4 mps 764 mmHg 56%
    16:00 +23°C° 0.1 mm 4 mps 764 mmHg 57%
    17:00 +22°C° 0 mm 4 mps 764 mmHg 64%
    18:00 +20°C° 0 mm 3 mps 765 mmHg 71%
    19:00 +19°C° 0 mm 2 mps 765 mmHg 78%
    20:00 +18°C° 0 mm 2 mps 766 mmHg 80%
    21:00 +18°C° 0 mm 2 mps 766 mmHg 82%
    22:00 +18°C° 0 mm 2 mps 766 mmHg 84%
    23:00 +18°C° 0 mm 2 mps 766 mmHg 85%

    20 September, Friday

    Time Temperature Precipitation Wind Pressure Humidity
    00:00 +17°C° 0 mm 2 mps 766 mmHg 85%
    01:00 +18°C° 0 mm 1 mps 766 mmHg 86%
    02:00 +18°C° 0.1 mm 1 mps 766 mmHg 87%
    03:00 +18°C° 0.1 mm 1 mps 766 mmHg 89%
    04:00 +18°C° 0.1 mm 1 mps 766 mmHg 90%
    05:00 +18°C° 0.1 mm 1 mps 766 mmHg 88%
    06:00 +19°C° 0.1 mm 1 mps 766 mmHg 85%
    07:00 +19°C° 0.1 mm 1 mps 767 mmHg 83%
    08:00 +20°C° 0.1 mm 2 mps 767 mmHg 74%
    09:00 +22°C° 0.1 mm 3 mps 766 mmHg 64%
    10:00 +25°C° 0.1 mm 3 mps 766 mmHg 55%
    11:00 +25°C° 0 mm 4 mps 766 mmHg 50%
    12:00 +26°C° 0 mm 4 mps 765 mmHg 46%
    13:00 +26°C° 0 mm 4 mps 765 mmHg 41%
    14:00 +26°C° 0 mm 4 mps 764 mmHg 44%
    15:00 +25°C° 0 mm 4 mps 764 mmHg 47%
    16:00 +23°C° 0 mm 4 mps 764 mmHg 49%
    17:00 +22°C° 0 mm 3 mps 765 mmHg 60%
    18:00 +20°C° 0 mm 3 mps 765 mmHg 70%
    19:00 +19°C° 0 mm 3 mps 766 mmHg 80%
    20:00 +19°C° 0.1 mm 2 mps 766 mmHg 82%
    21:00 +18°C° 0.1 mm 2 mps 766 mmHg 83%
    22:00 +18°C° 0.1 mm 2 mps 766 mmHg 85%
    23:00 +18°C° 0.1 mm 2 mps 766 mmHg 86%

    21 September, Saturday

    Time Temperature Precipitation Wind Pressure Humidity
    00:00 +18°C° 0.1 mm 2 mps 766 mmHg 87%
    01:00 +19°C° 0.1 mm 1 mps 766 mmHg 88%
    02:00 +18°C° 0.1 mm 1 mps 765 mmHg 88%
    03:00 +18°C° 0.1 mm 1 mps 765 mmHg 89%
    04:00 +18°C° 0.1 mm 1 mps 765 mmHg 90%
    05:00 +19°C° 0.1 mm 1 mps 765 mmHg 87%
    06:00 +19°C° 0.1 mm 1 mps 766 mmHg 85%
    07:00 +20°C° 0.1 mm 1 mps 766 mmHg 82%
    08:00 +21°C° 0.1 mm 2 mps 766 mmHg 73%
    09:00 +24°C° 0.1 mm 2 mps 766 mmHg 64%
    10:00 +25°C° 0.1 mm 3 mps 766 mmHg 55%
    11:00 +26°C° 0 mm 3 mps 766 mmHg 51%
    12:00 +27°C° 0 mm 4 mps 765 mmHg 46%
    13:00 +27°C° 0 mm 4 mps 765 mmHg 42%
    14:00 +26°C° 0 mm 4 mps 764 mmHg 48%
    15:00 +26°C° 0 mm 4 mps 764 mmHg 53%
    16:00 +25°C° 0 mm 4 mps 764 mmHg 58%
    17:00 +22°C° 0 mm 3 mps 764 mmHg 66%
    18:00 +21°C° 0 mm 3 mps 765 mmHg 74%
    19:00 +19°C° 0 mm 2 mps 765 mmHg 82%
    20:00 +19°C° 0.1 mm 2 mps 766 mmHg 84%
    21:00 +20°C° 0.1 mm 1 mps 766 mmHg 86%
    22:00 +19°C° 0.1 mm 1 mps 766 mmHg 88%
    23:00 +19°C° 0.1 mm 1 mps 766 mmHg 89%
    Show more